Wind_Speed
32 32 30 30 31 34 36 39 40 44 44 44 46 45 48 49 49 49 51 52 53 49 44 42 41 42 42 45 48 51 48 45 42 35 35 43 42 37 33 35 36 39 44 49 57 61 64
25 26 28 29 31 33 33 36 38 42 43 43 44 47 49 48 49 48 46 47 47 49 49 46 45 43 43 45 48 52 51 52 51 46 43 44 41 36 33 29 27 32 39 46 52 52 53
22 23 23 25 28 32 34 35 37 38 41 43 45 44 46 51 45 45 46 45 42 44 48 49 47 49 46 45 47 50 53 56 59 58 55 53 50 50 43 38 31 27 29 28 34 38 45
19 20 21 23 26 27 31 34 38 38 38 41 43 43 42 46 50 48 46 47 45 43 44 46 48 48 48 46 48 50 53 55 59 62 64 62 61 57 53 48 42 38 34 33 36 45 47
16 19 21 21 23 24 28 30 32 36 36 37 41 42 41 42 48 49 47 46 46 44 44 43 46 49 47 50 48 49 53 56 60 64 67 68 69 67 66 59 57 49 45 45 44 46 43
14 15 16 17 19 22 25 28 30 32 34 38 39 39 43 41 43 49 47 45 46 46 43 43 44 47 48 48 51 50 53 57 58 62 67 69 71 73 72 70 64 64 58 53 50 51 48
10 11 16 17 19 21 24 26 28 29 31 34 35 38 38 42 43 45 47 44 43 45 48 41 43 45 49 52 51 50 54 57 58 61 64 68 71 72 76 77 73 68 67 63 59 57 49
12 14 12 16 17 19 21 23 24 28 29 30 32 35 35 37 42 42 46 43 41 43 46 43 41 45 46 52 53 55 53 57 58 56 63 64 69 74 75 79 80 76 70 69 67 59 44
12 14 14 16 17 18 20 21 22 27 30 33 34 35 36 36 40 40 41 40 39 44 45 45 44 42 42 50 55 58 59 54 58 57 61 64 65 72 76 78 80 80 75 70 71 63 56
11 13 14 15 15 16 18 19 22 25 31 33 34 35 35 39 38 39 41 39 39 42 45 47 46 45 44 48 55 58 63 59 54 59 61 63 64 66 73 78 78 82 80 74 70 70 61
13 15 16 17 17 16 18 21 22 26 29 30 32 35 36 39 37 40 41 39 42 43 46 48 51 47 45 47 51 62 63 65 52 59 62 66 63 63 68 74 76 78 81 80 73 69 67
17 17 19 21 20 19 21 21 23 25 29 31 34 36 37 39 35 36 39 40 45 44 48 50 50 51 51 49 47 62 67 64 55 56 62 64 64 62 63 68 72 74 78 78 76 70 62
22 22 22 23 23 23 23 24 25 28 30 32 33 34 36 38 36 34 38 42 44 48 49 52 51 51 52 51 47 57 64 65 73 52 59 60 63 62 56 62 66 69 73 74 74 70 64
25 25 26 26 24 24 24 25 27 30 30 31 33 33 31 36 34 37 41 40 46 48 50 51 52 53 54 54 50 56 60 61 71 69 64 64 63 59 57 57 63 63 67 70 70 70 65
28 29 27 27 26 27 27 28 31 31 32 33 36 34 32 36 38 39 38 41 44 46 50 52 53 55 56 58 59 57 60 63 72 73 57 63 63 60 52 56 61 58 62 65 66 68 65
34 34 32 31 31 31 31 33 34 35 35 36 39 40 36 36 37 41 40 43 46 49 49 51 53 54 57 61 58 59 64 63 70 74 69 69 71 62 55 53 55 57 58 62 62 62 65
39 37 37 36 35 35 36 37 37 36 36 37 40 40 39 40 39 40 40 45 48 49 55 55 53 53 55 59 64 63 62 65 74 71 69 69 70 68 57 50 54 53 56 57 59 59 61
42 41 41 40 40 39 38 40 40 40 38 41 43 44 46 47 47 46 46 48 48 52 54 58 59 59 61 65 64 65 69 65 76 75 72 74 73 66 63 52 49 52 56 53 56 56 58
45 45 46 47 48 46 44 44 44 45 45 45 47 49 50 50 51 55 53 54 56 57 57 57 60 65 62 63 62 60 66 70 74 80 78 79 76 73 62 51 55 53 52 55 53 56 56
52 49 49 50 51 51 50 49 48 48 50 50 52 51 55 56 53 55 57 59 62 65 62 64 67 69 65 62 64 63 67 73 74 83 85 81 86 76 64 51 57 50 49 54 55 57 59
58 56 54 54 56 58 58 56 53 53 53 55 56 56 59 56 58 58 59 62 64 63 64 67 69 70 66 66 70 74 76 76 76 80 85 87 91 76 67 54 50 51 54 53 55 60 58
65 64 61 59 60 61 63 62 60 58 58 60 60 61 61 59 62 63 68 71 69 68 71 73 76 74 75 77 76 76 80 80 81 84 87 90 95 79 72 57 56 56 59 60 54 56 58
71 70 69 67 67 67 67 67 68 65 64 65 68 66 65 63 65 67 70 71 73 75 76 83 82 81 85 86 84 87 82 80 78 85 90 91 93 94 65 63 59 60 63 63 65 56 59
76 76 75 75 75 75 74 73 72 70 70 71 73 73 69 70 74 74 74 78 81 82 84 84 82 86 88 88 87 87 84 82 85 89 89 95 108 101 70 64 60 61 60 64 63 61 61
82 81 81 81 81 81 80 78 76 76 76 77 79 77 78 76 77 81 82 84 86 86 90 90 95 93 94 87 89 85 86 86 90 92 102 107 107 98 72 65 65 62 64 64 64 61 61
89 87 86 86 87 87 86 85 85 85 84 84 84 84 80 80 83 84 83 86 90 95 94 97 96 92 88 91 92 93 91 92 96 100 112 104 98 90 75 64 64 64 66 66 64 61 65
94 94 93 92 92 91 90 90 89 91 91 87 88 88 84 83 87 89 91 91 92 95 96 98 98 95 96 95 95 95 96 101 109 106 116 99 93 84 74 67 62 66 66 66 66 65 70
101 100 99 98 97 97 96 95 94 93 90 87 88 91 87 87 89 91 90 94 96 96 99 98 96 92 96 95 99 101 108 110 115 119 109 92 87 78 70 66 64 67 68 69 67 71 73
105 103 103 102 101 100 100 99 96 95 93 92 92 95 94 93 93 91 97 100 97 94 96 97 101 99 98 102 106 108 112 118 113 116 97 87 78 67 62 63 70 70 68 69 72 76 76
Wind_Direction
78 73 71 68 63 58 54 53 51 49 49 48 48 47 47 44 43 41 41 39 38 35 36 36 38 38 37 37 35 30 28 25 16 359 344 339 332 325 314 300 282 276 278 281 280 282 283
68 68 65 61 58 55 50 48 45 43 44 43 45 42 41 42 39 39 38 36 37 34 32 29 27 29 31 32 32 29 24 25 22 17 8 2 3 357 353 338 306 287 280 282 285 290 293
63 62 57 56 52 49 45 43 41 39 34 32 35 37 36 33 36 33 33 31 30 30 30 28 24 22 24 25 27 27 24 23 24 21 19 14 14 19 13 6 357 327 309 308 305 306 305
53 52 50 47 47 44 41 35 33 36 32 26 27 26 28 27 27 26 26 26 24 25 23 22 23 19 20 22 22 22 22 19 21 21 22 21 19 16 17 18 9 4 354 344 337 328 323
45 41 36 36 36 34 35 33 27 27 28 25 23 21 20 14 19 19 19 19 21 19 20 16 16 16 16 17 20 19 19 18 18 18 20 20 22 20 17 15 17 11 2 357 348 341 339
44 36 29 25 27 25 26 26 25 20 18 16 16 16 15 9 10 13 11 11 16 16 15 13 8 9 11 13 17 17 17 15 17 14 14 16 18 19 19 16 14 14 11 5 358 357 350
359 18 18 14 14 14 13 17 18 17 13 11 10 9 9 9 3 5 7 5 5 11 13 11 7 6 8 8 10 13 16 13 16 14 12 10 12 14 15 16 15 14 13 9 6 8 4
359 1 356 2 5 4 3 5 6 6 8 6 5 1 5 2 359 358 4 3 6 7 6 6 8 2 3 8 6 9 10 13 13 11 10 9 6 9 12 12 13 14 13 10 9 15 12
344 351 348 345 350 351 355 356 358 1 1 3 0 357 357 355 352 355 360 3 2 6 4 2 4 360 1 0 4 4 5 5 8 11 9 8 4 5 7 9 8 11 14 12 10 18 21
322 336 335 328 335 339 342 345 351 350 354 354 356 356 354 352 351 347 357 3 4 4 359 1 360 1 360 355 360 1 2 3 1 6 8 7 7 1 4 5 5 7 9 13 12 15 26
305 316 318 316 322 325 332 340 342 341 341 343 344 350 350 349 349 346 354 3 4 3 1 4 5 3 2 357 358 0 1 6 357 358 1 3 5 358 357 2 3 3 6 9 13 14 20
292 303 308 313 316 317 318 329 333 336 338 341 346 345 345 346 346 344 351 355 355 357 358 357 359 2 0 359 358 359 2 7 353 347 352 354 2 357 353 356 -0 0 2 4 9 13 16
290 298 299 303 306 308 311 321 322 326 333 337 338 340 340 343 347 342 349 350 351 351 353 352 354 355 356 356 349 351 358 2 3 349 350 353 354 355 353 348 354 358 359 0 4 9 12
283 290 297 296 298 302 305 310 314 318 325 329 331 334 333 335 337 339 343 347 346 347 350 353 352 351 355 353 345 344 350 355 356 1 356 354 349 352 352 349 346 353 356 356 357 2 8
282 288 292 287 290 293 299 303 307 312 318 322 324 330 331 329 330 333 339 339 338 341 344 347 347 349 349 350 348 341 340 344 351 354 356 352 350 348 341 347 348 344 351 352 352 353 360
280 285 289 284 289 294 298 299 302 308 315 320 321 322 330 325 323 328 332 329 334 337 338 338 341 342 342 346 350 345 341 338 342 347 351 350 350 350 340 335 343 341 342 347 348 347 350
277 281 286 284 284 291 297 298 301 301 305 309 312 313 317 320 321 321 325 324 329 333 336 336 336 339 340 342 346 346 346 340 337 341 344 344 347 348 346 332 331 332 334 338 341 343 343
276 281 284 284 283 286 291 295 297 295 298 303 307 306 311 316 314 319 320 324 327 329 330 335 335 335 334 334 340 344 346 340 340 339 338 339 340 341 344 338 327 329 328 326 335 337 338
272 277 279 280 281 282 286 291 293 293 294 297 301 304 304 310 312 316 319 316 318 323 323 326 328 331 332 334 337 336 340 338 339 341 336 336 335 338 336 331 330 322 323 323 325 330 332
271 275 277 279 279 281 284 288 291 292 292 295 294 297 301 309 310 311 314 314 317 317 318 323 324 328 329 329 330 330 331 334 335 336 339 336 335 333 332 322 315 320 319 318 316 319 324
269 271 275 277 280 281 283 285 288 290 292 292 293 293 299 303 304 307 309 313 314 315 317 319 320 324 324 324 325 324 325 327 329 331 335 336 337 331 334 322 310 319 318 315 313 311 317
269 272 274 276 278 281 283 285 287 287 288 291 292 293 295 297 301 304 308 312 314 312 313 314 318 319 320 322 323 321 319 320 322 326 328 332 333 331 326 317 310 311 309 317 313 308 312
268 271 274 277 278 280 282 284 284 288 291 294 293 293 293 293 297 302 305 307 308 309 310 313 317 319 320 321 323 322 319 317 322 324 327 329 332 334 318 314 314 311 309 308 311 305 307
268 271 273 276 278 280 282 284 284 286 289 291 293 293 293 294 298 299 300 301 305 307 312 313 315 316 319 320 323 322 319 317 317 325 323 326 328 330 319 314 313 310 307 309 308 307 306
266 269 271 274 277 280 281 282 284 286 288 289 290 291 291 293 296 297 299 299 301 305 306 310 311 317 318 317 317 318 318 317 319 322 322 323 324 327 318 310 310 309 306 304 307 306 304
267 269 272 274 276 278 280 282 284 286 288 290 290 291 290 290 293 294 296 299 301 304 307 308 313 314 313 315 316 315 315 315 319 319 322 321 321 322 317 309 306 306 306 304 305 306 303
267 270 272 274 276 277 279 281 283 285 287 287 288 288 289 291 291 292 294 298 302 304 307 309 309 311 312 313 314 315 314 315 319 318 322 319 319 318 313 309 307 306 304 304 303 301 301
266 269 271 273 275 277 279 280 283 283 284 284 286 285 288 290 291 293 296 296 300 304 308 309 308 308 308 310 312 315 315 316 317 320 319 316 315 313 310 308 307 304 304 302 299 300 302
265 268 270 273 275 276 279 280 281 282 283 284 284 286 288 290 291 293 296 298 301 305 308 305 307 308 308 311 312 312 313 314 315 318 315 313 312 310 306 304 304 305 301 299 299 300 302
Height
10827 10826 10825 10823 10820 10817 10814 10811 10808 10805 10800 10796 10792 10787 10782 10778 10773 10769 10763 10758 10754 10750 10745 10741 10736 10731 10725 10720 10714 10708 10703 10697 10690 10681 10672 10660 10649 10638 10630 10622 10616 10614 10611 10608 10601 10593 10583
10830 10829 10827 10825 10822 10819 10817 10814 10810 10807 10803 10800 10795 10791 10786 10781 10777 10772 10767 10763 10758 10753 10749 10743 10738 10733 10726 10720 10713 10709 10703 10695 10687 10678 10668 10656 10642 10631 10622 10615 10609 10605 10602 10597 10586 10579 10569
10832 10830 10829 10827 10824 10821 10819 10816 10812 10808 10804 10800 10796 10792 10787 10784 10779 10775 10770 10766 10761 10756 10751 10745 10739 10734 10728 10721 10714 10708 10702 10694 10685 10675 10664 10652 10641 10631 10620 10612 10606 10599 10592 10588 10577 10568 10555
10834 10833 10831 10829 10826 10823 10819 10817 10813 10810 10806 10802 10797 10792 10789 10785 10781 10777 10773 10768 10763 10758 10752 10747 10741 10736 10729 10722 10714 10707 10700 10692 10683 10674 10663 10652 10641 10631 10620 10612 10601 10592 10584 10575 10565 10552 10541
10836 10834 10832 10830 10827 10824 10821 10818 10815 10812 10808 10804 10799 10796 10791 10786 10782 10777 10773 10769 10763 10758 10752 10747 10741 10736 10731 10723 10715 10707 10700 10692 10682 10672 10662 10652 10641 10632 10618 10609 10599 10589 10577 10565 10555 10543 10531
10836 10835 10833 10831 10828 10825 10822 10820 10816 10813 10809 10805 10801 10796 10792 10788 10783 10778 10772 10768 10763 10759 10752 10747 10742 10737 10732 10725 10717 10708 10700 10693 10683 10672 10662 10652 10643 10632 10620 10608 10597 10584 10572 10560 10548 10535 10518
10835 10834 10832 10830 10828 10825 10823 10820 10817 10815 10811 10806 10802 10798 10794 10789 10784 10779 10774 10769 10764 10759 10753 10747 10742 10736 10730 10723 10717 10709 10700 10691 10683 10674 10665 10654 10643 10634 10622 10610 10597 10584 10571 10558 10545 10530 10513
10834 10833 10831 10829 10827 10825 10823 10820 10817 10814 10810 10807 10802 10797 10794 10790 10785 10780 10775 10769 10763 10756 10751 10746 10740 10734 10727 10721 10714 10707 10699 10692 10682 10674 10665 10655 10644 10631 10621 10610 10598 10585 10573 10558 10543 10532 10517
10832 10831 10829 10828 10825 10824 10821 10818 10816 10813 10809 10806 10801 10796 10792 10789 10784 10780 10774 10768 10762 10756 10750 10744 10738 10732 10725 10719 10712 10706 10697 10689 10682 10672 10663 10652 10643 10632 10622 10612 10601 10589 10577 10562 10547 10537 10521
10829 10828 10827 10825 10823 10821 10819 10816 10814 10811 10808 10804 10800 10796 10792 10786 10781 10777 10772 10766 10760 10755 10749 10743 10736 10731 10724 10717 10710 10703 10695 10687 10679 10671 10664 10653 10643 10634 10624 10614 10602 10590 10578 10567 10553 10540 10527
10827 10826 10824 10823 10821 10819 10817 10814 10811 10808 10805 10802 10798 10794 10789 10783 10779 10774 10769 10764 10759 10754 10749 10742 10736 10729 10722 10717 10709 10702 10693 10683 10675 10669 10663 10654 10644 10634 10625 10614 10604 10593 10583 10571 10560 10547 10535
10823 10822 10820 10819 10817 10815 10813 10811 10808 10806 10803 10800 10796 10791 10786 10782 10777 10772 10767 10761 10757 10751 10745 10740 10734 10726 10720 10712 10706 10699 10691 10683 10675 10668 10661 10654 10645 10636 10625 10616 10606 10597 10587 10577 10566 10555 10549
10818 10818 10817 10815 10813 10812 10810 10808 10805 10802 10799 10796 10793 10789 10784 10780 10774 10769 10764 10759 10754 10748 10742 10735 10729 10722 10717 10711 10703 10696 10689 10681 10674 10664 10659 10652 10642 10635 10627 10619 10609 10601 10591 10582 10574 10566 10554
10813 10813 10812 10811 10809 10808 10806 10803 10801 10798 10795 10792 10788 10785 10781 10776 10771 10766 10761 10756 10750 10743 10737 10732 10725 10720 10714 10707 10699 10692 10684 10676 10669 10663 10654 10645 10639 10631 10624 10617 10609 10601 10593 10585 10577 10570 10563
10807 10807 10807 10806 10804 10803 10801 10799 10796 10793 10790 10786 10782 10780 10776 10772 10767 10762 10757 10753 10747 10740 10734 10727 10722 10715 10709 10700 10695 10688 10678 10673 10665 10659 10652 10646 10638 10631 10624 10617 10609 10601 10592 10585 10578 10571 10566
10800 10800 10800 10800 10799 10797 10796 10793 10791 10788 10785 10781 10776 10770 10770 10765 10762 10757 10752 10747 10742 10735 10728 10722 10717 10710 10703 10697 10691 10685 10675 10667 10659 10653 10647 10641 10633 10626 10620 10614 10607 10600 10592 10584 10578 10571 10564
10792 10792 10793 10793 10791 10790 10788 10787 10784 10782 10779 10775 10770 10764 10763 10760 10754 10750 10746 10741 10734 10728 10722 10715 10709 10704 10697 10692 10683 10678 10672 10664 10655 10646 10640 10635 10627 10622 10614 10609 10603 10597 10590 10583 10575 10570 10564
10784 10784 10784 10784 10784 10782 10781 10780 10777 10775 10774 10770 10765 10759 10754 10753 10747 10742 10737 10732 10727 10721 10716 10710 10704 10697 10691 10686 10679 10671 10665 10658 10651 10642 10634 10626 10621 10614 10608 10601 10596 10590 10584 10579 10573 10566 10561
10775 10775 10776 10775 10775 10774 10772 10771 10769 10767 10766 10764 10760 10751 10745 10743 10741 10735 10727 10722 10719 10713 10706 10701 10695 10691 10683 10676 10671 10662 10657 10650 10643 10635 10628 10620 10612 10605 10597 10593 10586 10580 10576 10571 10566 10561 10556
10765 10765 10766 10766 10765 10764 10763 10762 10760 10757 10756 10755 10752 10749 10739 10734 10728 10726 10724 10715 10711 10705 10698 10693 10686 10681 10675 10666 10661 10657 10651 10642 10633 10625 10619 10612 10602 10596 10589 10585 10578 10569 10564 10560 10557 10552 10547
10753 10754 10755 10755 10753 10753 10752 10751 10749 10747 10745 10743 10740 10739 10734 10731 10721 10716 10712 10706 10701 10697 10688 10682 10677 10671 10665 10659 10654 10645 10637 10634 10625 10617 10609 10604 10594 10584 10577 10571 10569 10560 10551 10549 10545 10539 10537
10741 10742 10742 10742 10742 10741 10740 10738 10736 10735 10733 10730 10729 10725 10725 10721 10710 10705 10700 10693 10690 10685 10681 10675 10665 10661 10654 10649 10643 10635 10628 10618 10612 10605 10597 10589 10584 10575 10565 10556 10555 10551 10541 10536 10530 10526 10524
10728 10728 10728 10728 10728 10728 10727 10726 10724 10723 10720 10717 10713 10714 10712 10709 10699 10692 10686 10682 10677 10671 10668 10659 10654 10648 10639 10633 10628 10621 10613 10605 10597 10591 10583 10574 10567 10562 10555 10543 10540 10536 10527 10522 10516 10511 10507
10713 10714 10714 10714 10713 10713 10713 10712 10709 10709 10707 10704 10699 10699 10698 10696 10687 10677 10678 10671 10663 10658 10651 10645 10637 10633 10625 10618 10612 10605 10597 10590 10580 10573 10565 10558 10551 10543 10539 10529 10527 10520 10512 10505 10499 10495 10490
10697 10699 10699 10698 10698 10697 10697 10696 10693 10693 10692 10690 10685 10683 10682 10681 10672 10664 10661 10656 10649 10645 10637 10630 10622 10614 10607 10601 10596 10590 10580 10573 10564 10556 10548 10539 10529 10524 10518 10513 10509 10505 10497 10491 10486 10481 10472
10680 10682 10682 10682 10681 10681 10680 10679 10677 10675 10675 10672 10666 10665 10667 10665 10657 10649 10645 10639 10634 10627 10621 10612 10602 10596 10588 10581 10574 10567 10561 10554 10548 10540 10529 10520 10511 10505 10498 10495 10493 10485 10478 10472 10468 10465 10455
10662 10664 10665 10664 10664 10662 10662 10661 10659 10656 10655 10655 10648 10644 10647 10648 10642 10633 10629 10624 10615 10609 10604 10598 10589 10578 10569 10562 10554 10547 10543 10533 10526 10518 10510 10498 10491 10484 10476 10473 10473 10466 10460 10454 10449 10445 10438
10644 10645 10646 10646 10645 10644 10642 10640 10639 10636 10635 10634 10631 10622 10626 10629 10627 10619 10613 10603 10598 10589 10582 10579 10570 10564 10552 10542 10534 10525 10521 10513 10502 10493 10485 10478 10470 10464 10456 10451 10450 10445 10440 10434 10429 10423 10416
10623 10625 10625 10625 10625 10624 10622 10619 10617 10614 10613 10612 10612 10603 10603 10606 10610 10605 10595 10583 10576 10570 10564 10559 10549 10538 10529 10523 10515 10504 10497 10491 10481 10476 10464 10457 10449 10443 10438 10434 10428 10423 10418 10412 10407 10399 10392